START_TIME,STEP,MOV.,M15,t_acc.,M20,t_acc.
1989-08-27T00:00:44.510 ,1,0,0.,24.0,0.,24.0
1989-08-27T00:01:08.510 ,2,1,0.,24.0,0.,24.0
1989-08-27T00:01:32.510 ,2,0,0.,24.0,0.,24.0
1989-08-27T00:01:56.510 ,3,1,0.,24.0,0.,24.0
1989-08-27T00:02:20.510 ,3,0,0.,24.0,0.,24.0
1989-08-27T00:02:44.510 ,4,1,0.,24.0,0.,24.0
1989-08-27T00:03:08.510 ,4,0,0.,24.0,0.,24.0
1989-08-27T00:03:32.510 ,5,1,0.,24.0,0.,24.0
1989-08-27T00:03:56.510 ,5,0,0.,24.0,0.,24.0
1989-08-27T00:04:20.510 ,6,1,0.,24.0,0.,24.0
1989-08-27T00:04:44.510 ,6,0,0.,24.0,0.,24.0
1989-08-27T00:05:08.510 ,7,1,0.,24.0,0.,24.0
1989-08-27T00:05:32.510 ,7,0,0.,24.0,0.,24.0
1989-08-27T00:05:56.510 ,7,1,0.,24.0,0.,24.0
1989-08-27T00:06:20.510 ,7,0,0.,24.0,0.,24.0
1989-08-27T00:06:44.510 ,6,1,0.,24.0,0.,24.0
1989-08-27T00:07:08.510 ,6,0,0.,24.0,0.,24.0
1989-08-27T00:07:32.510 ,5,1,0.,24.0,0.,24.0
1989-08-27T00:07:56.510 ,5,0,0.,24.0,0.,24.0
1989-08-27T00:08:20.510 ,4,1,0.,24.0,0.,24.0
1989-08-27T00:08:44.510 ,4,0,0.,24.0,0.,24.0
1989-08-27T00:09:08.510 ,3,1,0.,24.0,0.,24.0
1989-08-27T00:09:32.510 ,3,0,0.,24.0,0.,24.0
1989-08-27T00:09:56.510 ,2,1,0.,24.0,0.,24.0
1989-08-27T00:10:20.510 ,2,0,0.,24.0,0.,24.0
1989-08-27T00:10:44.510 ,1,1,0.,24.0,0.,24.0
1989-08-27T00:11:08.510 ,1,0,0.,24.0,0.,24.0
1989-08-27T00:11:32.510 ,0,1,0.,24.0,0.,24.0
1989-08-27T00:11:56.510 ,0,0,0.,24.0,0.,24.0
1989-08-27T00:12:20.510 ,0,1,0.,24.0,0.,24.0
1989-08-27T00:12:44.510 ,0,0,0.,24.0,0.,24.0
1989-08-27T00:13:08.510 ,1,1,0.,24.0,0.,24.0
1989-08-27T00:13:32.510 ,1,0,0.,24.0,0.,24.0
1989-08-27T00:13:56.510 ,2,1,0.,24.0,0.,24.0
1989-08-27T00:14:20.510 ,2,0,0.,24.0,0.,24.0
1989-08-27T00:14:44.510 ,3,1,0.,24.0,0.,24.0
1989-08-27T00:15:08.510 ,3,0,0.,24.0,0.,24.0
1989-08-27T00:15:32.510 ,4,1,0.,24.0,0.,24.0
1989-08-27T00:15:56.510 ,4,0,0.,24.0,0.,24.0
1989-08-27T00:16:20.510 ,5,1,0.,24.0,0.,24.0
1989-08-27T00:16:44.510 ,5,0,0.,24.0,0.,24.0
1989-08-27T00:17:08.510 ,6,1,0.,24.0,0.,24.0
1989-08-27T00:17:32.510 ,6,0,0.,24.0,0.,24.0
1989-08-27T00:17:56.510 ,7,1,0.,24.0,0.,24.0
1989-08-27T00:18:20.510 ,7,0,0.,24.0,0.,24.0
1989-08-27T00:18:44.510 ,7,1,0.,24.0,0.,24.0
1989-08-27T00:19:08.510 ,7,0,0.,24.0,0.,24.0
1989-08-27T00:19:32.510 ,6,1,0.,24.0,0.,24.0
1989-08-27T00:19:56.510 ,6,0,0.,24.0,0.,24.0
1989-08-27T00:20:20.510 ,5,1,0.,24.0,0.,24.0
1989-08-27T00:20:44.510 ,5,0,0.,24.0,0.,24.0
1989-08-27T00:21:08.510 ,4,1,0.,24.0,0.,24.0
1989-08-27T00:21:32.510 ,4,0,0.,24.0,0.,24.0
1989-08-27T00:21:56.510 ,3,1,0.,24.0,0.,24.0
1989-08-27T00:22:20.510 ,3,0,0.,24.0,0.,24.0
1989-08-27T00:22:44.510 ,2,1,0.,24.0,0.,24.0
1989-08-27T00:23:08.510 ,2,0,0.,24.0,0.,24.0
1989-08-27T00:23:32.510 ,1,1,0.,24.0,0.,24.0
1989-08-27T00:23:56.510 ,1,0,0.,24.0,0.,24.0
1989-08-27T00:24:20.510 ,0,1,0.,24.0,0.,24.0
1989-08-27T00:24:44.510 ,0,0,0.,24.0,0.,24.0
1989-08-27T00:25:08.500 ,0,1,0.,24.0,0.,24.0
1989-08-27T00:25:32.500 ,0,0,0.,24.0,0.,24.0
1989-08-27T00:25:56.500 ,1,1,0.,24.0,0.,24.0
1989-08-27T00:26:20.500 ,1,0,0.,24.0,0.,24.0
1989-08-27T00:26:44.500 ,2,1,0.,24.0,0.,24.0
1989-08-27T00:27:08.500 ,2,0,0.,24.0,0.,24.0
1989-08-27T00:27:32.500 ,3,1,0.,24.0,0.,24.0
1989-08-27T00:27:56.500 ,3,0,0.,24.0,0.,24.0
1989-08-27T00:28:20.500 ,4,1,0.,24.0,0.,24.0
1989-08-27T00:28:44.500 ,4,0,0.,24.0,0.,24.0
1989-08-27T00:29:08.500 ,5,1,0.,24.0,0.,24.0
1989-08-27T00:29:32.500 ,5,0,0.,24.0,0.,24.0
1989-08-27T00:29:56.500 ,6,1,0.,24.0,0.,24.0
1989-08-27T00:30:20.500 ,6,0,0.,24.0,0.,24.0
1989-08-27T00:30:44.500 ,7,1,0.,24.0,0.,24.0
1989-08-27T00:31:08.500 ,7,0,0.,24.0,0.,24.0
1989-08-27T00:31:32.500 ,7,1,0.,24.0,0.,24.0
1989-08-27T00:31:56.500 ,7,0,0.,24.0,0.,24.0
1989-08-27T00:32:20.500 ,6,1,0.,24.0,0.,24.0
1989-08-27T00:32:44.500 ,6,0,0.,24.0,0.,24.0
1989-08-27T00:33:08.500 ,5,1,0.,24.0,0.,24.0
1989-08-27T00:33:32.500 ,5,0,0.,24.0,0.,24.0
1989-08-27T00:33:56.500 ,4,1,0.,24.0,0.,24.0
1989-08-27T00:34:20.500 ,4,0,0.,24.0,0.,24.0
1989-08-27T00:34:44.500 ,3,1,0.,24.0,0.,24.0
1989-08-27T00:35:08.500 ,3,0,0.,24.0,0.,24.0
1989-08-27T00:35:32.500 ,2,1,0.,24.0,0.,24.0
1989-08-27T00:35:56.500 ,2,0,0.,24.0,0.,24.0
1989-08-27T00:36:20.500 ,1,1,0.,24.0,0.,24.0
1989-08-27T00:36:44.500 ,1,0,0.,24.0,0.,24.0
1989-08-27T00:37:08.500 ,0,1,0.,24.0,0.,24.0
1989-08-27T00:37:32.500 ,0,0,0.,24.0,0.,24.0
1989-08-27T00:37:56.500 ,0,1,0.,24.0,0.,24.0
1989-08-27T00:38:20.500 ,0,0,0.,24.0,0.,24.0
1989-08-27T00:38:44.500 ,1,1,0.,24.0,0.,24.0
1989-08-27T00:39:08.500 ,1,0,0.,24.0,0.,24.0
1989-08-27T00:39:32.500 ,2,1,0.,24.0,0.,24.0
1989-08-27T00:39:56.500 ,2,0,0.,24.0,0.,24.0
1989-08-27T00:40:20.500 ,3,1,0.,24.0,0.,24.0
1989-08-27T00:40:44.500 ,3,0,0.,24.0,0.,24.0
1989-08-27T00:41:08.500 ,4,1,0.,24.0,0.,24.0
1989-08-27T00:41:32.500 ,4,0,0.,24.0,0.,24.0
1989-08-27T00:41:56.500 ,5,1,0.,24.0,0.,24.0
1989-08-27T00:42:20.500 ,5,0,0.,24.0,0.,24.0
1989-08-27T00:42:44.500 ,6,1,0.,24.0,0.,24.0
1989-08-27T00:43:08.500 ,6,0,0.,24.0,0.,24.0
1989-08-27T00:43:32.500 ,7,1,0.,24.0,0.,24.0
1989-08-27T00:43:56.500 ,7,0,0.,24.0,0.,24.0
1989-08-27T00:44:20.500 ,7,1,0.,24.0,0.,24.0
1989-08-27T00:44:44.500 ,7,0,0.,24.0,0.,24.0
1989-08-27T00:45:08.500 ,6,1,0.,24.0,0.,24.0
1989-08-27T00:45:32.500 ,6,0,0.,24.0,0.,24.0
1989-08-27T00:45:56.500 ,5,1,0.,24.0,0.,24.0
1989-08-27T00:46:20.500 ,5,0,0.,24.0,0.,24.0
1989-08-27T00:46:44.500 ,4,1,0.,24.0,0.,24.0
1989-08-27T00:47:08.500 ,4,0,0.,24.0,0.,24.0
1989-08-27T00:47:32.500 ,3,1,0.,24.0,0.,24.0
1989-08-27T00:47:56.500 ,3,0,0.,24.0,0.,24.0
1989-08-27T00:48:20.500 ,2,1,0.,24.0,0.,24.0
1989-08-27T00:48:44.500 ,2,0,0.,24.0,0.,24.0
1989-08-27T00:49:08.500 ,1,1,0.,24.0,0.,24.0
1989-08-27T00:49:32.500 ,1,0,0.,24.0,0.,24.0
1989-08-27T00:49:56.500 ,0,1,0.,24.0,0.,24.0
1989-08-27T00:50:20.500 ,0,0,0.,24.0,0.,24.0
1989-08-27T00:50:44.500 ,0,1,0.,24.0,0.,24.0
1989-08-27T00:51:08.500 ,0,0,0.,24.0,0.,24.0
1989-08-27T00:51:32.500 ,1,1,0.,24.0,0.,24.0
1989-08-27T00:51:56.500 ,1,0,0.,24.0,0.,24.0
1989-08-27T00:52:20.500 ,2,1,0.,24.0,0.,24.0
1989-08-27T00:52:44.500 ,2,0,0.,24.0,0.,24.0
1989-08-27T00:53:08.500 ,3,1,0.,24.0,0.,24.0
1989-08-27T00:53:32.500 ,3,0,0.,24.0,0.,24.0
1989-08-27T00:53:56.500 ,4,1,0.,24.0,0.,24.0
1989-08-27T00:54:20.500 ,4,0,0.,24.0,0.,24.0
1989-08-27T00:54:44.500 ,5,1,0.,24.0,0.,24.0
1989-08-27T00:55:08.500 ,5,0,0.,24.0,0.,24.0
1989-08-27T00:55:32.500 ,6,1,0.,24.0,0.,24.0
1989-08-27T00:55:56.500 ,6,0,0.,24.0,0.,24.0
1989-08-27T00:56:20.500 ,7,1,0.,24.0,0.,24.0
1989-08-27T00:56:44.500 ,7,0,0.,24.0,0.,24.0
1989-08-27T00:57:08.500 ,7,1,0.,24.0,0.,24.0
1989-08-27T00:57:32.500 ,7,0,0.,24.0,0.,24.0
1989-08-27T00:57:56.500 ,6,1,0.,24.0,0.,24.0
1989-08-27T00:58:20.500 ,6,0,0.,24.0,0.,24.0
1989-08-27T00:58:44.500 ,5,1,0.,24.0,0.,24.0
1989-08-27T00:59:08.500 ,5,0,0.,24.0,0.,24.0
1989-08-27T00:59:32.500 ,4,1,0.,24.0,0.,24.0
1989-08-27T00:59:56.500 ,4,0,0.,24.0,0.,24.0
1989-08-27T01:00:20.500 ,3,1,0.,24.0,0.,24.0
1989-08-27T01:00:44.500 ,3,0,0.,24.0,0.,24.0
1989-08-27T01:01:08.500 ,2,1,0.,24.0,0.,24.0
1989-08-27T01:01:32.500 ,2,0,0.,24.0,0.,24.0
1989-08-27T01:01:56.500 ,1,1,0.,24.0,0.,24.0
1989-08-27T01:02:20.500 ,1,0,0.,24.0,0.,24.0
1989-08-27T01:02:44.500 ,0,1,0.,24.0,0.,24.0
1989-08-27T01:03:08.500 ,0,0,0.,24.0,0.,24.0
1989-08-27T01:03:32.500 ,0,1,0.,24.0,0.,24.0
1989-08-27T01:03:56.500 ,0,0,0.,24.0,0.,24.0
1989-08-27T01:04:20.500 ,1,1,0.,24.0,0.,24.0
1989-08-27T01:04:44.500 ,1,0,0.,24.0,0.,24.0
1989-08-27T01:05:08.500 ,2,1,0.,24.0,0.,24.0
1989-08-27T01:05:32.500 ,2,0,0.,24.0,0.,24.0
1989-08-27T01:05:56.500 ,3,1,0.,24.0,0.,24.0
1989-08-27T01:06:20.500 ,3,0,0.,24.0,0.,24.0
1989-08-27T01:06:44.500 ,4,1,0.,24.0,0.,24.0
1989-08-27T01:07:08.500 ,4,0,0.,24.0,0.,24.0
1989-08-27T01:07:32.500 ,5,1,0.,24.0,0.,24.0
1989-08-27T01:07:56.500 ,5,0,0.,24.0,0.,24.0
1989-08-27T01:08:20.500 ,6,1,0.,24.0,0.,24.0
1989-08-27T01:08:44.500 ,6,0,0.,24.0,0.,24.0
1989-08-27T01:09:08.500 ,7,1,0.,24.0,0.,24.0
1989-08-27T01:09:32.500 ,7,0,0.,24.0,0.,24.0
1989-08-27T01:09:56.500 ,7,1,0.,24.0,0.,24.0
1989-08-27T01:10:20.500 ,7,0,0.,24.0,0.,24.0
1989-08-27T01:10:44.500 ,6,1,0.,24.0,0.,24.0
1989-08-27T01:11:08.500 ,6,0,0.,24.0,0.,24.0
1989-08-27T01:11:32.500 ,5,1,0.,24.0,0.,24.0
1989-08-27T01:11:56.500 ,5,0,0.,24.0,0.,24.0
1989-08-27T01:12:20.500 ,4,1,0.,24.0,0.,24.0
1989-08-27T01:12:44.500 ,4,0,0.,24.0,0.,24.0
1989-08-27T01:13:08.500 ,3,1,0.,24.0,0.,24.0
1989-08-27T01:13:32.500 ,3,0,0.,24.0,0.,24.0
1989-08-27T01:13:56.500 ,2,1,0.,24.0,0.,24.0
1989-08-27T01:14:20.500 ,2,0,0.,24.0,0.,24.0
1989-08-27T01:14:44.500 ,1,1,0.,24.0,0.,24.0
1989-08-27T01:15:08.500 ,1,0,0.,24.0,0.,24.0
1989-08-27T01:15:32.500 ,0,1,0.,24.0,0.,24.0
1989-08-27T01:15:56.500 ,0,0,0.,24.0,0.,24.0
1989-08-27T01:16:20.500 ,0,1,0.,24.0,0.,24.0
1989-08-27T01:16:44.500 ,0,0,0.,24.0,0.,24.0
1989-08-27T01:17:08.500 ,1,1,0.,24.0,0.,24.0
1989-08-27T01:17:32.500 ,1,0,0.,24.0,0.,24.0
1989-08-27T01:17:56.500 ,2,1,0.,24.0,0.,24.0
1989-08-27T01:18:20.500 ,2,0,0.,24.0,0.,24.0
1989-08-27T01:18:44.500 ,3,1,0.,24.0,0.,24.0
1989-08-27T01:19:08.500 ,3,0,0.,24.0,0.,24.0
1989-08-27T01:19:32.500 ,4,1,0.,24.0,0.,24.0
1989-08-27T01:19:56.500 ,4,0,0.,24.0,0.,24.0
1989-08-27T01:20:20.500 ,5,1,0.,24.0,0.,24.0
1989-08-27T01:20:44.500 ,5,0,0.,24.0,0.,24.0
1989-08-27T01:21:08.500 ,6,1,0.,24.0,0.,24.0
1989-08-27T01:21:32.500 ,6,0,0.,24.0,0.,24.0
1989-08-27T01:21:56.500 ,7,1,0.,24.0,0.,24.0
1989-08-27T01:22:20.500 ,7,0,0.,24.0,0.,24.0
1989-08-27T01:22:44.500 ,7,1,0.,24.0,0.,24.0
1989-08-27T01:23:08.500 ,7,0,0.,24.0,0.,24.0
1989-08-27T01:23:32.500 ,6,1,0.,24.0,0.,24.0
1989-08-27T01:23:56.500 ,6,0,0.,24.0,0.,24.0
1989-08-27T01:24:20.500 ,5,1,0.,24.0,0.,24.0
1989-08-27T01:24:44.500 ,5,0,0.,24.0,0.,24.0
1989-08-27T01:25:08.500 ,4,1,0.,24.0,0.,24.0
1989-08-27T01:25:32.500 ,4,0,0.,24.0,0.,24.0
1989-08-27T01:25:56.500 ,3,1,0.,24.0,0.,24.0
1989-08-27T01:26:20.500 ,3,0,0.,24.0,0.,24.0
1989-08-27T01:26:44.500 ,2,1,0.,24.0,0.,24.0
1989-08-27T01:27:08.500 ,2,0,0.,24.0,0.,24.0
1989-08-27T01:27:32.500 ,1,1,0.,24.0,0.,24.0
1989-08-27T01:27:56.500 ,1,0,0.,24.0,0.,24.0
1989-08-27T01:28:20.500 ,0,1,0.,24.0,0.,24.0
1989-08-27T01:28:44.500 ,0,0,0.,24.0,0.,24.0
1989-08-27T01:29:08.500 ,0,1,0.,24.0,0.,24.0
1989-08-27T01:29:32.500 ,0,0,0.,24.0,0.,24.0
1989-08-27T01:29:56.500 ,1,1,0.,24.0,0.,24.0
1989-08-27T01:30:20.500 ,1,0,0.,24.0,0.,24.0
1989-08-27T01:30:44.500 ,2,1,0.,24.0,0.,24.0
1989-08-27T01:31:08.500 ,2,0,0.,24.0,0.,24.0
1989-08-27T01:31:32.500 ,3,1,0.,24.0,0.,24.0
1989-08-27T01:31:56.500 ,3,0,0.,24.0,0.,24.0
1989-08-27T01:32:20.500 ,4,1,0.,24.0,0.,24.0
1989-08-27T01:32:44.500 ,4,0,0.,24.0,0.,24.0
1989-08-27T01:33:08.500 ,5,1,0.,24.0,0.,24.0
1989-08-27T01:33:32.500 ,5,0,0.,24.0,0.,24.0
1989-08-27T01:33:56.500 ,6,1,0.,24.0,0.,24.0
1989-08-27T01:34:20.500 ,6,0,0.,24.0,0.,24.0
1989-08-27T01:34:44.500 ,7,1,0.,24.0,0.,24.0
1989-08-27T01:35:08.500 ,7,0,0.,24.0,0.,24.0
1989-08-27T01:35:32.500 ,7,1,0.,24.0,0.,24.0
1989-08-27T01:35:56.500 ,7,0,0.,24.0,0.,24.0
1989-08-27T01:36:20.500 ,6,1,0.,24.0,0.,24.0
1989-08-27T01:36:44.500 ,6,0,0.,24.0,0.,24.0
1989-08-27T01:37:08.500 ,5,1,0.,24.0,0.,24.0
1989-08-27T01:37:32.500 ,5,0,0.,24.0,0.,24.0
1989-08-27T01:37:56.500 ,4,1,0.,24.0,0.,24.0
1989-08-27T01:38:20.500 ,4,0,0.,24.0,0.,24.0
1989-08-27T01:38:44.500 ,3,1,0.,24.0,0.,24.0
1989-08-27T01:39:08.500 ,3,0,0.,24.0,0.,24.0
1989-08-27T01:39:32.500 ,2,1,0.,24.0,0.,24.0
1989-08-27T01:39:56.500 ,2,0,0.,24.0,0.,24.0
1989-08-27T01:40:20.500 ,1,1,0.,24.0,0.,24.0
1989-08-27T01:40:44.500 ,1,0,0.,24.0,0.,24.0
1989-08-27T01:41:08.500 ,0,1,0.,24.0,0.,24.0
1989-08-27T01:41:32.500 ,0,0,0.,24.0,0.,24.0
1989-08-27T01:41:56.500 ,0,1,0.,24.0,0.,24.0
1989-08-27T01:42:20.500 ,0,0,0.,24.0,0.,24.0
1989-08-27T01:42:44.500 ,1,1,0.,24.0,0.,24.0
1989-08-27T01:43:08.500 ,1,0,0.,24.0,0.,24.0
1989-08-27T01:43:32.500 ,2,1,0.,24.0,0.,24.0
1989-08-27T01:43:56.500 ,2,0,0.,24.0,0.,24.0
1989-08-27T01:44:20.500 ,3,1,0.,24.0,0.,24.0
1989-08-27T01:44:44.500 ,3,0,0.,24.0,0.,24.0
1989-08-27T01:45:08.500 ,4,1,0.,24.0,0.,24.0
1989-08-27T01:45:32.500 ,4,0,0.,24.0,0.,24.0
1989-08-27T01:45:56.500 ,5,1,0.,24.0,0.,24.0
1989-08-27T01:46:20.500 ,5,0,0.,24.0,0.,24.0
1989-08-27T01:46:44.500 ,6,1,0.,24.0,0.,24.0
1989-08-27T01:47:08.500 ,6,0,0.,24.0,0.,24.0
1989-08-27T01:47:32.500 ,7,1,0.,24.0,0.,24.0
1989-08-27T01:47:56.500 ,7,0,0.,24.0,0.,24.0
1989-08-27T01:48:20.500 ,7,1,0.,24.0,0.,24.0
1989-08-27T01:48:44.500 ,7,0,0.,24.0,0.,24.0
1989-08-27T01:49:08.500 ,6,1,0.,24.0,0.,24.0
1989-08-27T01:49:32.500 ,6,0,0.,24.0,0.,24.0
1989-08-27T01:49:56.500 ,5,1,0.,24.0,0.,24.0
1989-08-27T01:50:20.500 ,5,0,0.,24.0,0.,24.0
1989-08-27T01:50:44.500 ,4,1,0.,24.0,0.,24.0
1989-08-27T01:51:08.500 ,4,0,0.,24.0,0.,24.0
1989-08-27T01:51:32.500 ,3,1,0.,24.0,0.,24.0
1989-08-27T01:51:56.500 ,3,0,0.,24.0,0.,24.0
1989-08-27T01:52:20.500 ,2,1,0.,24.0,0.,24.0
1989-08-27T01:52:44.500 ,2,0,0.,24.0,0.,24.0
1989-08-27T01:53:08.500 ,1,1,0.,24.0,0.,24.0
1989-08-27T01:53:32.500 ,1,0,0.,24.0,0.,24.0
1989-08-27T01:53:56.500 ,0,1,0.,24.0,0.,24.0
1989-08-27T01:54:20.500 ,0,0,0.,24.0,0.,24.0
1989-08-27T01:54:44.500 ,0,1,0.,24.0,0.,24.0
1989-08-27T01:55:08.500 ,0,0,0.,24.0,0.,24.0
1989-08-27T01:55:32.500 ,1,1,0.,24.0,0.,24.0
1989-08-27T01:55:56.500 ,1,0,0.,24.0,0.,24.0
1989-08-27T01:56:20.500 ,2,1,0.,24.0,0.,24.0
1989-08-27T01:56:44.500 ,2,0,0.,24.0,0.,24.0
1989-08-27T01:57:08.500 ,3,1,0.,24.0,0.,24.0
1989-08-27T01:57:32.500 ,3,0,0.,24.0,0.,24.0
1989-08-27T01:57:56.500 ,4,1,0.,24.0,0.,24.0
1989-08-27T01:58:20.500 ,4,0,0.,24.0,0.,24.0
1989-08-27T01:58:44.500 ,5,1,0.,24.0,0.,24.0
1989-08-27T01:59:08.500 ,5,0,0.,24.0,0.,24.0
1989-08-27T01:59:32.500 ,6,1,0.,24.0,0.,24.0
1989-08-27T01:59:56.500 ,6,0,0.,24.0,0.,24.0
1989-08-27T02:00:20.500 ,7,1,0.,24.0,0.,24.0
1989-08-27T02:00:44.500 ,7,0,0.,24.0,0.,24.0
1989-08-27T02:01:08.500 ,7,1,0.,24.0,0.,24.0
1989-08-27T02:01:32.500 ,7,0,0.,24.0,0.,24.0
1989-08-27T02:01:56.500 ,6,1,0.,24.0,0.,24.0
1989-08-27T02:02:20.500 ,6,0,0.,24.0,0.,24.0
1989-08-27T02:02:44.500 ,5,1,0.,24.0,0.,24.0
1989-08-27T02:03:08.500 ,5,0,0.,24.0,0.,24.0
1989-08-27T02:03:32.500 ,4,1,0.,24.0,0.,24.0
1989-08-27T02:03:56.500 ,4,0,0.,24.0,0.,24.0
1989-08-27T02:04:20.500 ,3,1,0.,24.0,0.,24.0
1989-08-27T02:04:44.500 ,3,0,0.,24.0,0.,24.0
1989-08-27T02:05:08.500 ,2,1,0.,24.0,0.,24.0
1989-08-27T02:05:32.500 ,2,0,0.,24.0,0.,24.0
1989-08-27T02:05:56.500 ,1,1,0.,24.0,0.,24.0
1989-08-27T02:06:20.500 ,1,0,0.,24.0,0.,24.0
1989-08-27T02:06:44.500 ,0,1,0.,24.0,0.,24.0
1989-08-27T02:07:08.500 ,0,0,0.,24.0,0.,24.0
1989-08-27T02:07:32.500 ,0,1,0.,24.0,0.,24.0
1989-08-27T02:07:56.500 ,0,0,0.,24.0,0.,24.0
1989-08-27T02:08:20.500 ,1,1,0.,24.0,0.,24.0
1989-08-27T02:08:44.500 ,1,0,0.,24.0,0.,24.0
1989-08-27T02:09:08.500 ,2,1,0.,24.0,0.,24.0
1989-08-27T02:09:32.500 ,2,0,0.,24.0,0.,24.0
1989-08-27T02:09:56.500 ,3,1,0.,24.0,0.,24.0
1989-08-27T02:10:20.500 ,3,0,0.,24.0,0.,24.0
1989-08-27T02:10:44.500 ,4,1,0.,24.0,0.,24.0
1989-08-27T02:11:08.500 ,4,0,0.,24.0,0.,24.0
1989-08-27T02:11:32.500 ,5,1,0.,24.0,0.,24.0
1989-08-27T02:11:56.500 ,5,0,0.,24.0,0.,24.0
1989-08-27T02:12:20.500 ,6,1,0.,24.0,0.,24.0
1989-08-27T02:12:44.500 ,6,0,0.,24.0,0.,24.0
1989-08-27T02:13:08.500 ,7,1,0.,24.0,0.,24.0
1989-08-27T02:13:32.500 ,7,0,0.,24.0,0.,24.0
1989-08-27T02:13:56.500 ,7,1,0.,24.0,0.,24.0
1989-08-27T02:14:20.500 ,7,0,0.,24.0,0.,24.0
1989-08-27T02:14:44.500 ,6,1,0.,24.0,0.,24.0
1989-08-27T02:15:08.500 ,6,0,0.,24.0,0.,24.0
1989-08-27T02:15:32.500 ,5,1,0.,24.0,0.,24.0
1989-08-27T02:15:56.500 ,5,0,0.,24.0,0.,24.0
1989-08-27T02:16:20.500 ,4,1,0.,24.0,0.,24.0
1989-08-27T02:16:44.500 ,4,0,0.,24.0,0.,24.0
1989-08-27T02:17:08.500 ,3,1,0.,24.0,0.,24.0
1989-08-27T02:17:32.500 ,3,0,0.,24.0,0.,24.0
1989-08-27T02:17:56.500 ,2,1,0.,24.0,0.,24.0
1989-08-27T02:18:20.500 ,2,0,0.,24.0,0.,24.0
1989-08-27T02:18:44.500 ,1,1,0.,24.0,0.,24.0
1989-08-27T02:19:08.500 ,1,0,0.,24.0,0.,24.0
1989-08-27T02:19:32.500 ,0,1,0.,24.0,0.,24.0
1989-08-27T02:19:56.500 ,0,0,0.,24.0,0.,24.0
1989-08-27T02:20:20.500 ,0,1,0.,24.0,0.,24.0
1989-08-27T02:20:44.500 ,0,0,0.,24.0,0.,24.0
1989-08-27T02:21:08.490 ,1,1,0.,24.0,0.,24.0
1989-08-27T02:21:32.490 ,1,0,0.,24.0,0.,24.0
1989-08-27T02:21:56.490 ,2,1,0.,24.0,0.,24.0
1989-08-27T02:22:20.490 ,2,0,0.,24.0,0.,24.0
1989-08-27T02:22:44.490 ,3,1,0.,24.0,0.,24.0
1989-08-27T02:23:08.490 ,3,0,0.,24.0,0.,24.0
1989-08-27T02:23:32.490 ,4,1,0.,24.0,0.,24.0
1989-08-27T02:23:56.490 ,4,0,0.,24.0,0.,24.0
1989-08-27T02:24:20.490 ,5,1,0.,24.0,0.,24.0
1989-08-27T02:24:44.490 ,5,0,0.,24.0,0.,24.0
1989-08-27T02:25:08.490 ,6,1,0.,24.0,0.,24.0
1989-08-27T02:25:32.490 ,6,0,0.,24.0,0.,24.0
1989-08-27T02:25:56.490 ,7,1,0.,24.0,0.,24.0
1989-08-27T02:26:20.490 ,7,0,0.,24.0,0.,24.0
1989-08-27T02:26:44.490 ,7,1,0.,24.0,0.,24.0
1989-08-27T02:27:08.490 ,7,0,0.,24.0,0.,24.0
1989-08-27T02:27:32.490 ,6,1,0.,24.0,0.,24.0
1989-08-27T02:27:56.490 ,6,0,0.,24.0,0.,24.0
1989-08-27T02:28:20.490 ,5,1,0.,24.0,0.,24.0
1989-08-27T02:28:44.490 ,5,0,0.,24.0,0.,24.0
1989-08-27T02:29:08.490 ,4,1,0.,24.0,0.,24.0
1989-08-27T02:29:32.490 ,4,0,0.,24.0,0.,24.0
1989-08-27T02:29:56.490 ,3,1,0.,24.0,0.,24.0
1989-08-27T02:30:20.490 ,3,0,0.,24.0,0.,24.0
1989-08-27T02:30:44.490 ,2,1,0.,24.0,0.,24.0
1989-08-27T02:31:08.490 ,2,0,0.,24.0,0.,24.0
1989-08-27T02:31:32.490 ,1,1,0.,24.0,0.,24.0
1989-08-27T02:31:56.490 ,1,0,0.,24.0,0.,24.0
1989-08-27T02:32:20.490 ,0,1,0.,24.0,0.,24.0
1989-08-27T02:32:44.490 ,0,0,0.,24.0,0.,24.0
1989-08-27T02:33:08.490 ,0,1,0.,24.0,0.,24.0
1989-08-27T02:33:32.490 ,0,0,0.,24.0,0.,24.0
1989-08-27T02:33:56.490 ,1,1,0.,24.0,0.,24.0
1989-08-27T02:34:20.490 ,1,0,0.,24.0,0.,24.0
1989-08-27T02:34:44.490 ,2,1,0.,24.0,0.,24.0
1989-08-27T02:35:08.490 ,2,0,0.,24.0,0.,24.0
1989-08-27T02:35:32.490 ,3,1,0.,24.0,0.,24.0
1989-08-27T02:35:56.490 ,3,0,0.,24.0,0.,24.0
1989-08-27T02:36:20.490 ,4,1,0.,24.0,0.,24.0
1989-08-27T02:36:44.490 ,4,0,0.,24.0,0.,24.0
1989-08-27T02:37:08.490 ,5,1,0.,24.0,0.,24.0
1989-08-27T02:37:32.490 ,5,0,0.,24.0,0.,24.0
1989-08-27T02:37:56.490 ,6,1,0.,24.0,0.,24.0
1989-08-27T02:38:20.490 ,6,0,0.,24.0,0.,24.0
1989-08-27T02:38:44.490 ,7,1,0.,24.0,0.,24.0
1989-08-27T02:39:08.490 ,7,0,0.,24.0,0.,24.0
1989-08-27T02:39:32.490 ,7,1,0.,24.0,0.,24.0
1989-08-27T02:39:56.490 ,7,0,0.,24.0,0.,24.0
1989-08-27T02:40:20.490 ,6,1,0.,24.0,0.,24.0
1989-08-27T02:40:44.490 ,6,0,0.,24.0,0.,24.0
1989-08-27T02:41:08.490 ,5,1,0.,24.0,0.,24.0
1989-08-27T02:41:32.490 ,5,0,0.,24.0,0.,24.0
1989-08-27T02:41:56.490 ,4,1,0.,24.0,0.,24.0
1989-08-27T02:42:20.490 ,4,0,0.,24.0,0.,24.0
1989-08-27T02:42:44.490 ,3,1,0.,24.0,0.,24.0
1989-08-27T02:43:08.490 ,3,0,0.,24.0,0.,24.0
1989-08-27T02:43:32.490 ,2,1,0.,24.0,0.,24.0
1989-08-27T02:43:56.490 ,2,0,0.,24.0,0.,24.0
1989-08-27T02:44:20.490 ,1,1,0.,24.0,0.,24.0
1989-08-27T02:44:44.490 ,1,0,0.,24.0,0.,24.0
1989-08-27T02:45:08.490 ,0,1,0.,24.0,0.,24.0
1989-08-27T02:45:32.490 ,0,0,0.,24.0,0.,24.0
1989-08-27T02:45:56.490 ,0,1,0.,24.0,0.,24.0
1989-08-27T02:46:20.490 ,0,0,0.,24.0,0.,24.0
1989-08-27T02:46:44.490 ,1,1,0.,24.0,0.,24.0
1989-08-27T02:47:08.490 ,1,0,0.,24.0,0.,24.0
1989-08-27T02:47:32.490 ,2,1,0.,24.0,0.,24.0
1989-08-27T02:47:56.490 ,0,0,0.,24.0,0.,24.0
1989-08-27T02:49:14.490 ,0,0,,0,,0
1989-08-27T02:49:32.490 ,0,0,0.,24.0,0.,24.0
1989-08-27T02:49:56.490 ,5,1,0.,24.0,0.,24.0
1989-08-27T02:50:20.490 ,5,0,0.,24.0,0.,24.0
1989-08-27T02:50:44.490 ,6,1,0.,24.0,0.,24.0
1989-08-27T02:51:08.490 ,6,0,0.,24.0,0.,24.0
1989-08-27T02:51:32.490 ,7,1,0.,24.0,0.,24.0
1989-08-27T02:51:56.490 ,7,0,0.,24.0,0.,24.0
1989-08-27T02:52:20.490 ,7,1,0.,24.0,0.,24.0
1989-08-27T02:52:44.490 ,7,0,0.,24.0,0.,24.0
1989-08-27T02:53:08.490 ,6,1,0.,24.0,0.,24.0
1989-08-27T02:53:32.490 ,6,0,0.,24.0,0.,24.0
1989-08-27T02:53:56.490 ,5,1,0.,24.0,0.,24.0
1989-08-27T02:54:20.490 ,5,0,0.,24.0,0.,24.0
1989-08-27T02:54:44.490 ,4,1,0.,24.0,0.,24.0
1989-08-27T02:55:08.490 ,4,0,0.,24.0,0.,24.0
1989-08-27T02:55:32.490 ,3,1,0.,24.0,0.,24.0
1989-08-27T02:55:56.490 ,3,0,0.,24.0,0.,24.0
1989-08-27T02:56:20.490 ,2,1,0.,24.0,0.,24.0
1989-08-27T02:56:44.490 ,2,0,0.,24.0,0.,24.0
1989-08-27T02:57:08.490 ,1,1,0.,24.0,0.,24.0
1989-08-27T02:57:32.490 ,1,0,0.,24.0,0.,24.0
1989-08-27T02:57:56.490 ,0,1,0.,24.0,0.,24.0
1989-08-27T02:58:20.490 ,0,0,0.,24.0,0.,24.0
1989-08-27T02:58:44.490 ,0,1,0.,24.0,0.,24.0
1989-08-27T02:59:08.490 ,0,0,0.,24.0,0.,24.0
1989-08-27T02:59:32.490 ,1,1,0.,24.0,0.,24.0
1989-08-27T02:59:56.490 ,1,0,0.,24.0,0.,24.0
1989-08-27T03:00:20.490 ,2,1,0.,24.0,0.,24.0
